Location: M.A.R.S.Observatory
(35.4031°N, 81.5481°W)
Time: 16:45:36
(UTC-04:00)

Daily predictions for brighter satellites

Satellite Brightness Start Highest point End
(mag) Time Altitude Azimuth Time Altitude Azimuth Time Altitude Azimuth
Cosmos 1898 Rocket 4.5 19:58:45 10° SSW 20:03:57 55° WNW 20:09:08 10° N
Delta 2 Rocket 3.8 20:00:57 10° W 20:06:01 74° SSW 20:10:25 10° ESE
METEOR-M 4.2 20:03:58 10° SSE 20:09:18 89° WSW 20:14:40 10° NNW
COSMOS 2406 3.7 20:05:47 10° NNW 20:11:29 67° WSW 20:17:07 10° S
Cosmos 1125 Rocket 4.2 20:08:07 10° SSE 20:12:35 30° E 20:17:06 10° NE
Resurs 01 Rocket 2.4 20:09:26 10° SE 20:13:18 31° ENE 20:17:10 10° N
Meteor 2-5 Rocket 4.1 20:08:11 10° NNW 20:13:56 77° W 20:19:46 10° S
Cosmos 1766 3.2 20:10:39 10° S 20:14:28 63° E 20:18:19 10° NNE
Cosmos 1605 Rocket 4.2 20:12:36 10° SSE 20:18:36 51° E 20:24:42 10° NNE
HJ-1C 3.4 20:24:23 10° SSE 20:27:44 62° ENE 20:31:07 10° N
SeaSat 1 2.5 20:23:06 10° SE 20:27:57 61° ENE 20:32:48 10° NNW
Cosmos 1674 4.3 20:28:53 10° NE 20:31:12 15° ENE 20:31:53 15° E
Cosmos 2123 Rocket 4.0 20:29:41 10° N 20:36:01 74° E 20:42:15 10° SSE
SL-27 R/B 2.7 20:34:41 10° NNW 20:38:17 74° WSW 20:41:54 10° S
Cosmos 2344 4.3 20:32:30 10° SW 20:40:03 60° NW 20:48:22 10° NNE
RESURS DK-1 2.4 20:36:09 10° NNW 20:40:18 81° WSW 20:44:25 10° SSE
CZ-2D R/B 3.6 20:38:16 10° SSE 20:41:57 44° ENE 20:45:39 10° N
CZ-3B DEB 4.3 20:32:57 10° WSW 20:44:28 43° NW 20:50:02 10° NNE
Cosmos 1805 3.1 20:42:35 10° S 20:46:28 79° E 20:50:22 10° N
Meteor 1-29 3.9 20:44:44 10° NE 20:47:43 26° E 20:48:19 25° ESE
In-Cosmos 22 4.0 20:42:37 10° N 20:47:57 80° E 20:53:12 10° S
GPS 2-05 Rocket1 3.0 20:46:13 10° WSW 20:49:44 62° SSE 20:51:23 29° E
ALOS 2.9 20:46:37 10° S 20:51:12 59° W 20:55:50 10° NNW
Cosmos 1818 3.9 20:46:10 10° NNW 20:51:26 48° ENE 20:54:41 22° ESE
COSMOS 2487 3.6 20:50:04 10° N 20:53:07 25° ENE 20:53:16 25° ENE
Resurs 1-3 3.5 20:49:14 10° SSE 20:53:36 76° ENE 20:57:59 10° N
Meteor 1-4 Rocket 2.3 20:54:24 10° S 20:57:52 89° W 21:01:22 10° N
Yuri Rocket 4.3 20:54:20 10° WSW 20:57:57 26° S 20:59:42 19° SSE
Cosmos 1269 Rocket 4.4 20:53:03 10° N 20:58:07 44° ENE 21:00:49 25° SE
Timation 1 Rocket 4.5 20:52:52 10° SSW 20:58:53 80° WNW 21:04:56 10° NNE
FENGYUN 3A 4.4 20:55:23 10° S 21:00:41 56° W 21:05:59 10° NNW
Cosmos 1470 3.1 21:00:37 24° SSE 21:02:30 40° E 21:06:15 10° NNE
Timation 2 Rocket 4.5 20:57:07 10° N 21:02:57 39° ENE 21:05:26 27° ESE
Cosmos 1833 Rocket 3.1 20:58:09 10° N 21:03:27 41° ENE 21:05:39 29° ESE
Cosmos 468 4.4 20:59:24 10° NNW 21:04:39 77° ENE 21:08:48 17° SSE
Cosmos 2278 Rocket 3.8 21:00:50 10° SW 21:06:04 38° WNW 21:11:20 10° N
Cosmos 1408 Rocket 3.8 21:01:48 10° N 21:06:08 48° E 21:07:46 32° SE
Cosmos 1544 3.9 21:02:44 10° SSW 21:06:17 51° W 21:09:52 10° N
Cosmos 372 Rocket 3.8 21:05:02 10° SSW 21:10:07 84° ESE 21:15:17 10° NNE
Spot 1 4.2 21:07:43 23° SSE 21:10:33 67° ENE 21:15:23 10° N
CZ-4B DEB 4.0 21:12:04 28° NNE 21:12:04 28° NNE 21:13:54 10° N
Cosmos 2098 Rocket 4.4 21:04:18 10° S 21:11:23 88° W 21:19:04 10° N
Cosmos 1733 3.3 21:10:59 46° ESE 21:11:31 50° E 21:15:17 10° NNE
Cosmos 1459 Rocket 4.1 21:06:12 10° SSE 21:12:16 54° E 21:18:16 10° NNE
Cosmos 1340 Rocket 3.9 21:09:23 10° NNE 21:12:09 28° NE 21:12:09 28° NE
Cosmos 1447 Rocket 4.4 21:07:55 10° N 21:14:04 83° E 21:20:14 10° S
Delta 128 4.5 21:10:20 10° WSW 21:14:21 32° S 21:15:07 30° SSE
ATLAS 5 CENTAUR R/B 1.6 21:12:41 10° SSW 21:17:18 87° ESE 21:22:17 10° NNE
Cosmos 2173 Rocket 4.0 21:12:01 10° S 21:18:01 59° E 21:24:08 10° NNE
ISS -3.9 21:15:01 10° SW 21:18:16 82° NW 21:18:25 78° N
USA 215 3.1 21:12:52 10° NE 21:19:23 70° SE 21:25:51 10° SW
H-2A R/B 4.4 21:17:13 10° SSW 21:20:47 35° W 21:24:25 10° NNW
Cosmos 158 Rocket 4.0 21:16:07 10° N 21:21:13 61° ENE 21:22:45 42° SE
H-II Stage 2 3.2 21:19:47 10° SW 21:20:30 17° SW 21:20:30 17° SW
Cosmos 2297 4.2 21:16:11 10° SSW 21:21:49 63° WNW 21:27:31 10° NNE
Cosmos 1867 4.3 21:18:59 10° SW 21:24:18 55° WNW 21:29:41 10° NNE
Tiangong 1 2.7 21:23:46 10° W 21:25:54 26° SW 21:25:54 26° SW
Aurora 2 Rocket 4.2 21:21:45 10° WSW 21:27:19 27° S 21:28:03 26° SSE
Abrixas 4.0 21:25:15 10° NW 21:26:58 31° NNW 21:26:58 31° NNW
Helios 1B rocket 3.2 21:30:02 10° N 21:34:04 53° WNW 21:38:03 10° SSW
Cosmos 1076 Rocket 4.3 21:31:10 10° NNW 21:35:15 48° W 21:38:07 18° SSW
Cosmos 1953 4.4 21:35:41 10° SW 21:39:13 28° WNW 21:42:45 10° NNW
Cosmos 2082 Rocket 2.1 21:33:41 10° NNW 21:39:24 86° WSW 21:41:10 46° SSE
Meteor 2-17 Rocket 4.3 21:40:14 39° SSE 21:42:32 66° E 21:48:37 10° NNE
GP-B 3.9 21:40:05 13° SSW 21:43:51 49° W 21:48:09 10° NNW
Envisat 2.9 21:42:59 56° S 21:44:07 88° WSW 21:49:13 10° NNW
Meteor 1-16 Rocket 4.2 21:44:16 60° E 21:44:21 60° E 21:50:10 10° NNE
Cosmos 1939 Rocket 3.4 21:45:32 55° N 21:45:32 55° N 21:48:51 10° N
Helios 1A 3.9 21:43:23 32° SSW 21:44:52 46° W 21:48:54 10° NNW
Cosmos 1271 Rocket 3.7 21:45:01 17° SSW 21:47:54 47° W 21:51:48 10° N
Cosmos 2016 Rocket 3.8 21:47:02 36° S 21:49:45 77° E 21:55:56 10° N
Resurs 01 Rocket 4.1 21:46:32 10° SW 21:49:46 20° W 21:53:00 10° NW
H-2A R/B 4.4 21:52:51 11° NNE 21:52:51 11° NNE 21:53:19 10° NNE
Cosmos 1725 Rocket 4.3 21:59:09 51° NE 21:59:09 51° NE 22:04:02 10° NNE
ERS-1 Rocket 3.5 22:03:22 50° N 22:03:22 50° N 22:07:08 10° N
Lacrosse 5 rocket 3.4 22:00:55 10° NNW 22:02:25 21° NNW 22:02:25 21° NNW
SL-08 R/B 4.4 22:10:08 69° SSW 22:11:00 86° W 22:17:27 10° N
Tsikada Rocket 4.4 22:12:50 10° N 22:17:28 50° NNE 22:17:28 50° NNE
